| time (UTC) | temp F | wind direction | speed knots | gust knots | rain 1hr in | rain 24hr in | rain mn in | humidity % | barometer mb |
| 20260508115557 | 60 | 61 | 1.7 | 2.6 | 0.00 | 0.00 | 0.00 | 66 | 1019.5 |
| 20260508115057 | 60 | 116 | 0.9 | 3.5 | 0.00 | 0.00 | 0.00 | 66 | 1019.5 |
| 20260508114332 | 59 | 114 | 0.0 | 3.5 | 0.00 | 0.00 | 0.00 | 66 | 1019.4 |
| 20260508113830 | 59 | 128 | 0.9 | 3.5 | 0.00 | 0.00 | 0.00 | 68 | 1019.5 |
| 20260508113332 | 59 | 161 | 0.0 | 1.7 | 0.00 | 0.00 | 0.00 | 67 | 1019.4 |
| 20260508112832 | 59 | 161 | 0.0 | 1.7 | 0.00 | 0.00 | 0.00 | 67 | 1019.4 |
| 20260508112333 | 59 | 161 | 0.9 | 1.7 | 0.00 | 0.00 | 0.00 | 68 | 1019.5 |
| 20260508111831 | 59 | 94 | 0.9 | 1.7 | 0.00 | 0.00 | 0.00 | 68 | 1019.5 |
| 20260508111551 | 59 | 92 | 0.9 | 2.6 | 0.00 | 0.00 | 0.00 | 69 | 1019.5 |
| 20260508110831 | 59 | 75 | 0.9 | 2.6 | 0.00 | 0.00 | 0.00 | 69 | 1019.5 |
| 20260508110331 | 59 | 117 | 0.9 | 4.3 | 0.00 | 0.00 | 0.00 | 69 | 1019.5 |
| 20260508105831 | 59 | 104 | 0.0 | 4.3 | 0.00 | 0.00 | 0.00 | 68 | 1019.4 |
| 20260508105330 | 60 | 94 | 1.7 | 4.3 | 0.00 | 0.00 | 0.00 | 69 | 1019.5 |
| 20260508104831 | 60 | 96 | 0.9 | 2.6 | 0.00 | 0.00 | 0.00 | 69 | 1019.4 |
| 20260508104331 | 60 | 99 | 0.9 | 3.5 | 0.00 | 0.00 | 0.00 | 70 | 1019.4 |
| 20260508103831 | 60 | 197 | 1.7 | 3.5 | 0.00 | 0.00 | 0.00 | 71 | 1019.4 |
| 20260508103331 | 60 | 107 | 1.7 | 3.5 | 0.00 | 0.00 | 0.00 | 70 | 1019.5 |
| 20260508102831 | 60 | 186 | 0.0 | 2.6 | 0.00 | 0.00 | 0.00 | 71 | 1019.4 |
| 20260508102331 | 59 | 120 | 0.9 | 2.6 | 0.00 | 0.00 | 0.00 | 72 | 1019.6 |
| 20260508101831 | 59 | 118 | 0.9 | 2.6 | 0.00 | 0.00 | 0.00 | 72 | 1019.5 |
| 20260508101332 | 59 | 114 | 0.9 | 2.6 | 0.00 | 0.00 | 0.00 | 74 | 1019.6 |
| 20260508101050 | 59 | 92 | 1.7 | 3.5 | 0.00 | 0.00 | 0.00 | 75 | 1019.7 |
| 20260508100554 | 58 | 97 | 1.7 | 3.5 | 0.00 | 0.00 | 0.00 | 76 | 1019.7 |
| 20260508095830 | 58 | 172 | 0.9 | 2.6 | 0.00 | 0.00 | 0.00 | 76 | 1019.6 |
| 20260508095331 | 58 | 157 | 0.9 | 5.2 | 0.00 | 0.00 | 0.00 | 76 | 1019.6 |
| 20260508095055 | 58 | 226 | 1.7 | 5.2 | 0.00 | 0.00 | 0.00 | 77 | 1019.7 |
| 20260508094331 | 57 | 131 | 0.9 | 2.6 | 0.00 | 0.00 | 0.00 | 77 | 1019.7 |
| 20260508094053 | 57 | 149 | 0.9 | 2.6 | 0.00 | 0.00 | 0.00 | 78 | 1019.7 |
| 20260508093332 | 56 | 158 | 0.9 | 2.6 | 0.00 | 0.00 | 0.00 | 79 | 1019.6 |
| 20260508093101 | 56 | 142 | 0.0 | 3.5 | 0.00 | 0.00 | 0.00 | 80 | 1019.6 |
| 20260508092332 | 56 | 120 | 1.7 | 3.5 | 0.00 | 0.00 | 0.00 | 79 | 1019.6 |
| 20260508092056 | 55 | 131 | 0.9 | 2.6 | 0.00 | 0.00 | 0.00 | 80 | 1019.5 |
| 20260508091554 | 55 | 103 | 0.9 | 3.5 | 0.00 | 0.00 | 0.00 | 81 | 1019.5 |
| 20260508090824 | 55 | 116 | 0.9 | 3.5 | 0.00 | 0.00 | 0.00 | 81 | 1019.6 |
| 20260508090322 | 55 | 131 | 0.9 | 2.6 | 0.00 | 0.00 | 0.00 | 81 | 1019.4 |
| 20260508085820 | 55 | 152 | 0.0 | 2.6 | 0.00 | 0.00 | 0.00 | 81 | 1019.4 |
| 20260508085316 | 55 | 152 | 0.0 | 2.6 | 0.00 | 0.00 | 0.00 | 81 | 1019.3 |
| 20260508084815 | 55 | 142 | 0.9 | 2.6 | 0.00 | 0.00 | 0.00 | 81 | 1019.4 |
| 20260508084540 | 55 | 137 | 0.0 | 1.7 | 0.00 | 0.00 | 0.00 | 81 | 1019.3 |
| 20260508083814 | 55 | 137 | 0.9 | 1.7 | 0.00 | 0.00 | 0.00 | 81 | 1019.3 |
| 20260508083313 | 55 | 135 | 0.0 | 3.5 | 0.00 | 0.00 | 0.00 | 81 | 1019.2 |
| 20260508083037 | 55 | 107 | 1.7 | 3.5 | 0.00 | 0.00 | 0.00 | 81 | 1019.2 |
| 20260508082314 | 55 | 114 | 0.0 | 2.6 | 0.00 | 0.00 | 0.00 | 82 | 1019.2 |
| 20260508081813 | 55 | 113 | 0.9 | 4.3 | 0.00 | 0.00 | 0.00 | 82 | 1019.2 |
| 20260508081313 | 55 | 104 | 0.0 | 4.3 | 0.00 | 0.00 | 0.00 | 83 | 1019.2 |
| 20260508080812 | 55 | 54 | 1.7 | 3.5 | 0.00 | 0.00 | 0.00 | 84 | 1019.3 |
| 20260508080312 | 54 | 117 | 1.7 | 3.5 | 0.00 | 0.00 | 0.00 | 85 | 1019.3 |
| 20260508075810 | 54 | 125 | 0.9 | 2.6 | 0.00 | 0.00 | 0.00 | 87 | 1019.3 |
| 20260508075308 | 53 | 168 | 0.9 | 2.6 | 0.00 | 0.00 | 0.00 | 88 | 1019.1 |
| 20260508074806 | 53 | 135 | 0.9 | 2.6 | 0.00 | 0.00 | 0.00 | 89 | 1019.2 |
| 20260508074304 | 52 | 165 | 0.9 | 1.7 | 0.00 | 0.00 | 0.00 | 91 | 1019.2 |
| 20260508073805 | 51 | 195 | 0.9 | 0.9 | 0.00 | 0.00 | 0.00 | 91 | 1019.2 |
| 20260508073303 | 51 | 195 | 0.0 | 1.7 | 0.00 | 0.00 | 0.00 | 91 | 1019.2 |
| 20260508072802 | 50 | 195 | 0.9 | 1.7 | 0.00 | 0.00 | 0.00 | 92 | 1019.2 |
| 20260508072306 | 50 | 195 | 0.9 | 1.7 | 0.00 | 0.00 | 0.00 | 92 | 1019.2 |
| 20260508072245 | 50 | 199 | 0.0 | 0.0 | 0.00 | 0.00 | 0.00 | 93 | 1019.2 |
| 20260508071302 | 49 | 199 | 0.0 | 0.0 | 0.00 | 0.00 | 0.00 | 93 | 1019.1 |
| 20260508070804 | 49 | 199 | 0.0 | 0.0 | 0.00 | 0.00 | 0.00 | 93 | 1019.0 |
| 20260508070302 | 49 | 199 | 0.0 | 0.0 | 0.00 | 0.00 | 0.00 | 93 | 1018.9 |
| 20260508065804 | 48 | 199 | 0.0 | 0.0 | 0.00 | 0.00 | 0.00 | 93 | 1018.9 |
| 20260508065306 | 48 | 199 | 0.0 | 0.0 | 0.00 | 0.00 | 0.00 | 93 | 1019.0 |
| 20260508064803 | 48 | 199 | 0.0 | 0.0 | 0.00 | 0.00 | 0.00 | 93 | 1019.0 |
| 20260508064302 | 48 | 199 | 0.0 | 0.9 | 0.00 | 0.00 | 0.00 | 94 | 1018.9 |
| 20260508063804 | 48 | 199 | 0.0 | 1.7 | 0.00 | 0.00 | 0.00 | 94 | 1018.8 |
| 20260508063302 | 48 | 199 | 0.0 | 1.7 | 0.00 | 0.00 | 0.00 | 94 | 1018.6 |
| 20260508062803 | 47 | 196 | 0.0 | 0.0 | 0.00 | 0.00 | 0.00 | 94 | 1018.6 |
| 20260508062526 | 47 | 196 | 0.0 | 0.0 | 0.00 | 0.00 | 0.00 | 94 | 1018.6 |
| 20260508061801 | 47 | 196 | 0.0 | 0.0 | 0.00 | 0.00 | 0.00 | 94 | 1018.5 |
| 20260508061301 | 47 | 196 | 0.0 | 0.0 | 0.00 | 0.00 | 0.00 | 94 | 1018.4 |
| 20260508060802 | 47 | 196 | 0.0 | 0.0 | 0.00 | 0.00 | 0.00 | 94 | 1018.4 |
| 20260508060300 | 46 | 196 | 0.0 | 0.0 | 0.00 | 0.00 | 0.00 | 94 | 1018.4 |
| 20260508055800 | 46 | 196 | 0.0 | 0.0 | 0.00 | 0.00 | 0.00 | 94 | 1018.4 |
| 20260508055300 | 46 | 196 | 0.0 | 0.0 | 0.00 | 0.00 | 0.00 | 94 | 1018.4 |
| 20260508054801 | 46 | 196 | 0.0 | 0.0 | 0.00 | 0.00 | 0.00 | 94 | 1018.4 |
| 20260508054300 | 46 | 196 | 0.0 | 0.0 | 0.00 | 0.00 | 0.00 | 93 | 1018.4 |
| 20260508053800 | 46 | 196 | 0.0 | 0.0 | 0.00 | 0.00 | 0.00 | 93 | 1018.4 |
| 20260508053300 | 45 | 196 | 0.0 | 0.0 | 0.00 | 0.00 | 0.00 | 93 | 1018.3 |
| 20260508052800 | 45 | 196 | 0.0 | 0.9 | 0.00 | 0.00 | 0.00 | 93 | 1018.3 |
| 20260508052259 | 45 | 196 | 0.0 | 0.9 | 0.00 | 0.00 | 0.00 | 93 | 1018.2 |
| 20260508051759 | 45 | 190 | 0.0 | 0.9 | 0.00 | 0.00 | 0.00 | 93 | 1018.1 |
| 20260508051526 | 45 | 190 | 0.0 | 0.9 | 0.00 | 0.00 | 0.00 | 93 | 1018.2 |
| 20260508050759 | 45 | 190 | 0.0 | 0.9 | 0.00 | 0.00 | 0.00 | 93 | 1018.2 |
| 20260508050301 | 45 | 190 | 0.0 | 1.7 | 0.00 | 0.00 | 0.00 | 93 | 1018.2 |
| 20260508045759 | 45 | 190 | 0.0 | 1.7 | 0.00 | 0.00 | 0.00 | 93 | 1018.0 |
| 20260508045258 | 45 | 192 | 0.0 | 0.9 | 0.00 | 0.00 | 0.00 | 93 | 1018.1 |
| 20260508044759 | 45 | 192 | 0.0 | 0.9 | 0.00 | 0.00 | 0.00 | 93 | 1018.0 |
| 20260508044258 | 45 | 193 | 0.0 | 0.0 | 0.00 | 0.00 | 0.00 | 93 | 1017.9 |
| 20260508043759 | 45 | 193 | 0.0 | 0.0 | 0.00 | 0.00 | 0.00 | 92 | 1017.9 |
| 20260508043259 | 45 | 193 | 0.0 | 0.0 | 0.00 | 0.00 | 0.00 | 92 | 1018.0 |
| 20260508042758 | 45 | 193 | 0.0 | 0.9 | 0.00 | 0.00 | 0.00 | 92 | 1018.1 |
| 20260508042258 | 45 | 193 | 0.0 | 0.9 | 0.00 | 0.00 | 0.00 | 92 | 1018.0 |
| 20260508041757 | 45 | 193 | 0.0 | 0.0 | 0.00 | 0.00 | 0.00 | 92 | 1018.1 |
| 20260508041258 | 45 | 193 | 0.0 | 0.0 | 0.00 | 0.00 | 0.00 | 92 | 1018.1 |
| 20260508041028 | 45 | 193 | 0.0 | 0.0 | 0.00 | 0.00 | 0.00 | 92 | 1018.0 |
| 20260508040258 | 45 | 193 | 0.0 | 0.0 | 0.00 | 0.00 | 0.00 | 92 | 1018.0 |
| 20260508035757 | 45 | 193 | 0.0 | 0.0 | 0.00 | 0.00 | 0.00 | 92 | 1017.9 |
| 20260508035257 | 45 | 193 | 0.0 | 0.0 | 0.00 | 0.00 | 0.00 | 92 | 1017.9 |
| 20260508034757 | 45 | 193 | 0.0 | 0.0 | 0.00 | 0.00 | 0.00 | 92 | 1018.0 |
| 20260508034739 | 45 | 193 | 0.0 | 0.0 | 0.00 | 0.00 | 0.00 | 92 | 1018.0 |
| 20260508033757 | 45 | 193 | 0.0 | 0.0 | 0.00 | 0.00 | 0.00 | 92 | 1018.0 |
| 20260508033529 | 45 | 193 | 0.0 | 0.0 | 0.00 | 0.00 | 0.00 | 91 | 1018.0 |
| 20260508032757 | 45 | 193 | 0.0 | 0.0 | 0.00 | 0.00 | 0.00 | 92 | 1018.0 |
| 20260508032256 | 45 | 193 | 0.0 | 0.0 | 0.00 | 0.00 | 0.00 | 91 | 1018.0 |
| 20260508031757 | 45 | 193 | 0.0 | 0.0 | 0.00 | 0.00 | 0.00 | 91 | 1018.0 |
| 20260508031519 | 45 | 193 | 0.0 | 0.0 | 0.00 | 0.00 | 0.00 | 91 | 1018.0 |
| 20260508031020 | 44 | 193 | 0.0 | 0.0 | 0.00 | 0.00 | 0.00 | 91 | 1018.0 |
| 20260508030256 | 45 | 193 | 0.0 | 0.0 | 0.00 | 0.00 | 0.00 | 91 | 1018.0 |
| 20260508025756 | 45 | 193 | 0.0 | 0.0 | 0.00 | 0.00 | 0.00 | 91 | 1018.0 |
| 20260508025519 | 45 | 193 | 0.0 | 0.0 | 0.00 | 0.00 | 0.00 | 91 | 1017.9 |
| 20260508025020 | 45 | 193 | 0.0 | 0.0 | 0.00 | 0.00 | 0.00 | 90 | 1018.0 |
| 20260508024256 | 45 | 193 | 0.0 | 0.0 | 0.00 | 0.00 | 0.00 | 90 | 1017.9 |
| 20260508023754 | 45 | 193 | 0.0 | 0.0 | 0.00 | 0.00 | 0.00 | 90 | 1017.9 |
| 20260508023256 | 45 | 193 | 0.0 | 0.0 | 0.00 | 0.00 | 0.00 | 90 | 1018.0 |
| 20260508022754 | 45 | 193 | 0.0 | 0.0 | 0.00 | 0.00 | 0.00 | 90 | 1017.9 |
| 20260508022255 | 45 | 193 | 0.0 | 0.0 | 0.00 | 0.00 | 0.00 | 90 | 1018.0 |
| 20260508021754 | 45 | 193 | 0.0 | 0.0 | 0.00 | 0.00 | 0.00 | 90 | 1017.9 |
| 20260508021255 | 45 | 193 | 0.0 | 0.0 | 0.00 | 0.00 | 0.00 | 90 | 1018.0 |
| 20260508021239 | 45 | 193 | 0.0 | 0.0 | 0.00 | 0.00 | 0.00 | 90 | 1018.0 |
| 20260508020255 | 46 | 193 | 0.0 | 0.0 | 0.00 | 0.00 | 0.00 | 89 | 1017.9 |
| 20260508015753 | 46 | 193 | 0.0 | 0.0 | 0.00 | 0.00 | 0.00 | 89 | 1017.9 |
| 20260508015255 | 46 | 193 | 0.0 | 0.0 | 0.00 | 0.00 | 0.00 | 89 | 1017.9 |
| 20260508014753 | 46 | 193 | 0.0 | 0.0 | 0.00 | 0.00 | 0.00 | 89 | 1017.8 |
| 20260508014254 | 46 | 193 | 0.0 | 0.0 | 0.00 | 0.00 | 0.00 | 89 | 1017.9 |
| 20260508013753 | 46 | 193 | 0.0 | 0.0 | 0.00 | 0.00 | 0.00 | 89 | 1017.8 |
| 20260508013255 | 47 | 193 | 0.0 | 0.0 | 0.00 | 0.00 | 0.00 | 89 | 1017.8 |
| 20260508012752 | 47 | 193 | 0.0 | 0.0 | 0.00 | 0.00 | 0.00 | 89 | 1017.9 |
| 20260508012254 | 47 | 193 | 0.0 | 0.0 | 0.00 | 0.00 | 0.00 | 89 | 1017.9 |
| 20260508011753 | 47 | 193 | 0.0 | 0.0 | 0.00 | 0.00 | 0.00 | 89 | 1017.9 |
| 20260508011255 | 47 | 193 | 0.0 | 0.0 | 0.00 | 0.00 | 0.00 | 88 | 1017.9 |
| 20260508010753 | 47 | 193 | 0.0 | 0.0 | 0.00 | 0.00 | 0.00 | 88 | 1017.8 |
| 20260508010255 | 47 | 193 | 0.0 | 0.0 | 0.00 | 0.00 | 0.00 | 88 | 1017.8 |
| 20260508005753 | 47 | 193 | 0.0 | 0.0 | 0.00 | 0.00 | 0.00 | 88 | 1017.7 |
| 20260508005256 | 48 | 193 | 0.0 | 0.0 | 0.00 | 0.00 | 0.00 | 88 | 1017.8 |
| 20260508004751 | 48 | 193 | 0.0 | 0.0 | 0.00 | 0.00 | 0.00 | 89 | 1017.9 |
| 20260508004522 | 48 | 193 | 0.0 | 0.0 | 0.00 | 0.00 | 0.00 | 89 | 1017.8 |
| 20260508003753 | 48 | 193 | 0.0 | 0.0 | 0.00 | 0.00 | 0.00 | 89 | 1017.9 |
| 20260508003517 | 48 | 193 | 0.0 | 0.0 | 0.00 | 0.00 | 0.00 | 89 | 1017.9 |
| 20260508003015 | 48 | 193 | 0.0 | 0.0 | 0.00 | 0.00 | 0.00 | 88 | 1017.8 |
| 20260508002254 | 48 | 193 | 0.0 | 0.0 | 0.00 | 0.00 | 0.00 | 88 | 1017.9 |
| 20260508001750 | 48 | 193 | 0.0 | 0.0 | 0.00 | 0.00 | 0.00 | 88 | 1017.9 |
| 20260508001738 | 48 | 193 | 0.0 | 0.0 | 0.00 | 0.00 | 0.00 | 88 | 1018.1 |
| 20260508000751 | 48 | 193 | 0.0 | 0.0 | 0.00 | 0.00 | 0.00 | 88 | 1018.1 |
| 20260508000253 | 48 | 193 | 0.0 | 0.0 | 0.00 | 0.00 | 0.00 | 87 | 1018.0 |
| 20260507235750 | 48 | 193 | 0.0 | 0.0 | 0.00 | 0.00 | 0.00 | 87 | 1018.0 |
| 20260507235251 | 48 | 193 | 0.0 | 0.9 | 0.00 | 0.00 | 0.00 | 87 | 1018.0 |
| 20260507234750 | 48 | 193 | 0.9 | 0.9 | 0.00 | 0.00 | 0.00 | 87 | 1017.9 |
| 20260507234514 | 48 | 193 | 0.0 | 0.0 | 0.00 | 0.00 | 0.00 | 87 | 1017.9 |
| 20260507233750 | 48 | 193 | 0.0 | 0.0 | 0.00 | 0.00 | 0.00 | 86 | 1018.0 |
| 20260507233251 | 48 | 193 | 0.0 | 0.0 | 0.00 | 0.00 | 0.00 | 86 | 1017.9 |
| 20260507232749 | 48 | 193 | 0.0 | 0.0 | 0.00 | 0.00 | 0.00 | 85 | 1017.9 |
| 20260507232251 | 48 | 193 | 0.0 | 0.0 | 0.00 | 0.00 | 0.00 | 85 | 1017.9 |
| 20260507231749 | 48 | 193 | 0.0 | 0.0 | 0.00 | 0.00 | 0.00 | 85 | 1018.0 |
| 20260507231252 | 48 | 193 | 0.0 | 0.9 | 0.00 | 0.00 | 0.00 | 84 | 1018.0 |
| 20260507230749 | 48 | 193 | 0.0 | 0.9 | 0.00 | 0.00 | 0.00 | 84 | 1017.9 |
| 20260507230250 | 49 | 193 | 0.0 | 0.0 | 0.00 | 0.00 | 0.00 | 84 | 1017.9 |
| 20260507225748 | 49 | 193 | 0.0 | 0.0 | 0.00 | 0.00 | 0.00 | 83 | 1017.9 |
| 20260507225514 | 49 | 193 | 0.0 | 0.0 | 0.00 | 0.00 | 0.00 | 83 | 1018.0 |
| 20260507224749 | 49 | 193 | 0.0 | 0.0 | 0.00 | 0.00 | 0.00 | 83 | 1018.0 |
| 20260507224249 | 49 | 193 | 0.0 | 0.0 | 0.00 | 0.00 | 0.00 | 82 | 1018.0 |
| 20260507223748 | 50 | 193 | 0.0 | 0.0 | 0.00 | 0.00 | 0.00 | 82 | 1018.0 |
| 20260507223249 | 50 | 193 | 0.0 | 0.0 | 0.00 | 0.00 | 0.00 | 81 | 1017.8 |
| 20260507223233 | 50 | 193 | 0.0 | 0.0 | 0.00 | 0.00 | 0.00 | 81 | 1017.8 |
| 20260507222248 | 50 | 193 | 0.0 | 0.0 | 0.00 | 0.00 | 0.00 | 81 | 1017.8 |
| 20260507221748 | 51 | 193 | 0.0 | 0.0 | 0.00 | 0.00 | 0.00 | 80 | 1017.8 |
| 20260507221513 | 51 | 193 | 0.0 | 0.0 | 0.00 | 0.00 | 0.00 | 80 | 1017.7 |
| 20260507220748 | 51 | 193 | 0.0 | 0.0 | 0.00 | 0.00 | 0.00 | 80 | 1017.7 |
| 20260507220248 | 51 | 193 | 0.0 | 0.0 | 0.00 | 0.00 | 0.00 | 79 | 1017.7 |
| 20260507220010 | 52 | 193 | 0.0 | 0.0 | 0.00 | 0.00 | 0.00 | 79 | 1017.8 |
| 20260507215247 | 52 | 193 | 0.0 | 0.0 | 0.00 | 0.00 | 0.00 | 79 | 1017.9 |
| 20260507214748 | 52 | 193 | 0.0 | 0.9 | 0.00 | 0.00 | 0.00 | 78 | 1017.7 |
| 20260507214515 | 53 | 193 | 0.0 | 0.9 | 0.00 | 0.00 | 0.00 | 78 | 1017.8 |
| 20260507213747 | 53 | 193 | 0.0 | 1.7 | 0.00 | 0.00 | 0.00 | 78 | 1017.8 |
| 20260507213509 | 53 | 193 | 0.0 | 2.6 | 0.00 | 0.00 | 0.00 | 78 | 1017.8 |
| 20260507212747 | 53 | 193 | 0.0 | 2.6 | 0.00 | 0.00 | 0.00 | 78 | 1017.8 |
| 20260507212247 | 53 | 193 | 0.0 | 0.0 | 0.00 | 0.00 | 0.00 | 78 | 1017.7 |
| 20260507212009 | 53 | 193 | 0.0 | 0.9 | 0.00 | 0.00 | 0.00 | 78 | 1017.7 |
| 20260507211246 | 53 | 193 | 0.0 | 0.9 | 0.00 | 0.00 | 0.00 | 77 | 1017.7 |
| 20260507210746 | 53 | 193 | 0.0 | 1.7 | 0.00 | 0.00 | 0.00 | 77 | 1017.7 |
| 20260507210247 | 53 | 193 | 0.0 | 2.6 | 0.00 | 0.00 | 0.00 | 77 | 1017.6 |
| 20260507205746 | 53 | 193 | 0.9 | 2.6 | 0.00 | 0.00 | 0.00 | 76 | 1017.6 |
| 20260507205245 | 53 | 137 | 0.0 | 2.6 | 0.00 | 0.00 | 0.00 | 76 | 1017.5 |
| 20260507204745 | 54 | 137 | 0.0 | 2.6 | 0.00 | 0.00 | 0.00 | 77 | 1017.4 |
| 20260507204245 | 54 | 244 | 0.0 | 1.7 | 0.00 | 0.00 | 0.00 | 76 | 1017.4 |
| 20260507203745 | 54 | 257 | 0.0 | 0.9 | 0.00 | 0.00 | 0.00 | 76 | 1017.4 |
| 20260507203245 | 54 | 257 | 0.0 | 0.9 | 0.00 | 0.00 | 0.00 | 76 | 1017.4 |
| 20260507202745 | 54 | 257 | 0.0 | 1.7 | 0.00 | 0.00 | 0.00 | 76 | 1017.3 |
| 20260507202245 | 54 | 257 | 0.9 | 1.7 | 0.00 | 0.00 | 0.00 | 75 | 1017.3 |
| 20260507202008 | 54 | 257 | 0.9 | 1.7 | 0.00 | 0.00 | 0.00 | 75 | 1017.2 |
| 20260507201245 | 54 | 269 | 0.0 | 1.7 | 0.00 | 0.00 | 0.00 | 76 | 1017.3 |
| 20260507200745 | 54 | 269 | 0.0 | 1.7 | 0.00 | 0.00 | 0.00 | 76 | 1017.2 |
| 20260507200244 | 54 | 269 | 0.0 | 1.7 | 0.00 | 0.00 | 0.00 | 75 | 1017.1 |
| 20260507195745 | 55 | 271 | 0.0 | 1.7 | 0.00 | 0.00 | 0.00 | 74 | 1017.2 |
| 20260507195246 | 55 | 271 | 0.9 | 1.7 | 0.00 | 0.00 | 0.00 | 75 | 1017.0 |
| 20260507194745 | 55 | 275 | 0.0 | 0.0 | 0.00 | 0.00 | 0.00 | 74 | 1017.0 |
| 20260507194241 | 55 | 275 | 0.0 | 0.0 | 0.00 | 0.00 | 0.00 | 74 | 1017.0 |
| 20260507193738 | 55 | 275 | 0.0 | 0.9 | 0.00 | 0.00 | 0.00 | 73 | 1017.1 |
| 20260507193238 | 56 | 275 | 0.0 | 1.7 | 0.00 | 0.00 | 0.00 | 72 | 1017.0 |
| 20260507192732 | 56 | 275 | 0.0 | 3.5 | 0.00 | 0.00 | 0.00 | 72 | 1017.0 |
| 20260507192231 | 56 | 275 | 0.9 | 3.5 | 0.00 | 0.00 | 0.00 | 71 | 1017.0 |
| 20260507191952 | 56 | 235 | 1.7 | 3.5 | 0.00 | 0.00 | 0.00 | 70 | 1017.1 |
| 20260507191231 | 56 | 259 | 1.7 | 4.3 | 0.00 | 0.00 | 0.00 | 69 | 1017.0 |
| 20260507191004 | 56 | 230 | 1.7 | 4.3 | 0.00 | 0.00 | 0.00 | 68 | 1016.9 |
| 20260507190452 | 57 | 171 | 0.9 | 2.6 | 0.00 | 0.00 | 0.00 | 67 | 1016.9 |
| 20260507185731 | 57 | 216 | 0.9 | 2.6 | 0.00 | 0.00 | 0.00 | 66 | 1016.9 |
| 20260507185231 | 57 | 189 | 0.9 | 2.6 | 0.00 | 0.00 | 0.00 | 65 | 1016.9 |
| 20260507184731 | 57 | 189 | 0.9 | 3.5 | 0.00 | 0.00 | 0.00 | 64 | 1016.8 |
| 20260507184231 | 57 | 189 | 1.7 | 3.5 | 0.00 | 0.00 | 0.00 | 63 | 1016.8 |
| 20260507183951 | 57 | 161 | 0.9 | 2.6 | 0.00 | 0.00 | 0.00 | 63 | 1016.7 |
| 20260507183230 | 57 | 161 | 0.9 | 1.7 | 0.00 | 0.00 | 0.00 | 62 | 1016.7 |
| 20260507182732 | 57 | 161 | 0.9 | 2.6 | 0.00 | 0.00 | 0.00 | 62 | 1016.6 |
| 20260507182232 | 58 | 159 | 0.9 | 2.6 | 0.00 | 0.00 | 0.00 | 62 | 1016.6 |
| 20260507181732 | 58 | 147 | 0.9 | 2.6 | 0.00 | 0.00 | 0.00 | 61 | 1016.5 |
| 20260507181232 | 58 | 155 | 0.9 | 2.6 | 0.00 | 0.00 | 0.00 | 61 | 1016.4 |
| 20260507180732 | 58 | 155 | 0.9 | 3.5 | 0.00 | 0.00 | 0.00 | 60 | 1016.4 |
| 20260507180449 | 58 | 155 | 1.7 | 4.3 | 0.00 | 0.00 | 0.00 | 61 | 1016.4 |
| 20260507175731 | 58 | 154 | 0.0 | 4.3 | 0.00 | 0.00 | 0.00 | 60 | 1016.4 |
| 20260507175231 | 58 | 212 | 0.9 | 3.5 | 0.00 | 0.00 | 0.00 | 60 | 1016.4 |
| 20260507174731 | 58 | 144 | 0.9 | 4.3 | 0.00 | 0.00 | 0.00 | 59 | 1016.5 |
| 20260507174215 | 58 | 217 | 1.7 | 4.3 | 0.00 | 0.00 | 0.00 | 58 | 1016.5 |
| 20260507173711 | 58 | 255 | 0.9 | 5.2 | 0.00 | 0.00 | 0.00 | 59 | 1016.5 |
| 20260507173211 | 58 | 185 | 1.7 | 5.2 | 0.00 | 0.00 | 0.00 | 58 | 1016.4 |
| 20260507172710 | 58 | 258 | 1.7 | 5.2 | 0.00 | 0.00 | 0.00 | 59 | 1016.5 |
| 20260507172430 | 59 | 207 | 1.7 | 5.2 | 0.00 | 0.00 | 0.00 | 57 | 1016.4 |
| 20260507171925 | 59 | 140 | 1.7 | 8.7 | 0.00 | 0.00 | 0.00 | 57 | 1016.5 |
| 20260507171205 | 59 | 293 | 0.9 | 8.7 | 0.00 | 0.00 | 0.00 | 57 | 1016.4 |
| 20260507170706 | 59 | 173 | 1.7 | 5.2 | 0.00 | 0.00 | 0.00 | 57 | 1016.4 |
| 20260507170205 | 59 | 206 | 0.9 | 6.1 | 0.00 | 0.00 | 0.00 | 57 | 1016.5 |
| 20260507165703 | 59 | 176 | 2.6 | 6.1 | 0.00 | 0.00 | 0.00 | 56 | 1016.4 |
| 20260507165204 | 59 | 204 | 1.7 | 6.1 | 0.00 | 0.00 | 0.00 | 56 | 1016.4 |
| 20260507164703 | 59 | 230 | 2.6 | 5.2 | 0.00 | 0.00 | 0.00 | 57 | 1016.5 |
| 20260507164202 | 59 | 161 | 1.7 | 4.3 | 0.00 | 0.00 | 0.00 | 57 | 1016.4 |
| 20260507163703 | 59 | 131 | 0.9 | 5.2 | 0.00 | 0.00 | 0.00 | 56 | 1016.4 |
| 20260507163203 | 60 | 207 | 1.7 | 8.7 | 0.00 | 0.00 | 0.00 | 55 | 1016.4 |
| 20260507162703 | 60 | 149 | 3.5 | 8.7 | 0.00 | 0.00 | 0.00 | 54 | 1016.5 |
| 20260507162203 | 60 | 121 | 3.5 | 10.4 | 0.00 | 0.00 | 0.00 | 53 | 1016.5 |
| 20260507161702 | 60 | 138 | 1.7 | 10.4 | 0.00 | 0.00 | 0.00 | 53 | 1016.5 |
| 20260507161202 | 60 | 103 | 2.6 | 6.1 | 0.00 | 0.00 | 0.00 | 55 | 1016.5 |
| 20260507160703 | 60 | 59 | 1.7 | 5.2 | 0.00 | 0.00 | 0.00 | 56 | 1016.5 |
| 20260507160203 | 60 | 227 | 1.7 | 4.3 | 0.00 | 0.00 | 0.00 | 57 | 1016.5 |
| 20260507155703 | 59 | 189 | 1.7 | 4.3 | 0.00 | 0.00 | 0.00 | 56 | 1016.6 |
| 20260507155203 | 59 | 183 | 1.7 | 7.8 | 0.00 | 0.00 | 0.00 | 57 | 1016.5 |
| 20260507154704 | 59 | 128 | 1.7 | 7.8 | 0.00 | 0.00 | 0.00 | 57 | 1016.5 |
| 20260507154203 | 59 | 117 | 0.9 | 5.2 | 0.00 | 0.00 | 0.00 | 57 | 1016.5 |
| 20260507153704 | 59 | 183 | 1.7 | 6.1 | 0.00 | 0.00 | 0.00 | 57 | 1016.7 |
| 20260507153203 | 59 | 128 | 2.6 | 6.1 | 0.00 | 0.00 | 0.00 | 57 | 1016.7 |
| 20260507152704 | 59 | 151 | 0.9 | 5.2 | 0.00 | 0.00 | 0.00 | 56 | 1016.7 |
| 20260507152203 | 60 | 125 | 0.9 | 3.5 | 0.00 | 0.00 | 0.00 | 56 | 1016.7 |
| 20260507151705 | 60 | 213 | 1.7 | 4.3 | 0.00 | 0.00 | 0.00 | 55 | 1016.8 |
| 20260507151203 | 60 | 224 | 1.7 | 4.3 | 0.00 | 0.00 | 0.00 | 55 | 1016.8 |
| 20260507150704 | 61 | 127 | 0.9 | 7.8 | 0.00 | 0.00 | 0.00 | 56 | 1016.7 |
| 20260507150205 | 61 | 195 | 3.5 | 7.8 | 0.00 | 0.00 | 0.00 | 55 | 1016.8 |
| 20260507145703 | 61 | 147 | 0.9 | 8.7 | 0.00 | 0.00 | 0.00 | 57 | 1016.9 |
| 20260507145204 | 61 | 199 | 1.7 | 8.7 | 0.00 | 0.00 | 0.00 | 55 | 1016.7 |
| 20260507144703 | 61 | 104 | 2.6 | 6.1 | 0.00 | 0.00 | 0.00 | 57 | 1016.8 |
| 20260507144205 | 62 | 138 | 0.9 | 5.2 | 0.00 | 0.00 | 0.00 | 57 | 1016.8 |
| 20260507143704 | 62 | 99 | 1.7 | 10.4 | 0.00 | 0.00 | 0.00 | 54 | 1016.9 |
| 20260507143427 | 62 | 220 | 1.7 | 10.4 | 0.00 | 0.00 | 0.00 | 55 | 1017.0 |
| 20260507142703 | 62 | 180 | 2.6 | 8.7 | 0.00 | 0.00 | 0.00 | 57 | 1017.0 |
| 20260507142203 | 61 | 159 | 1.7 | 5.2 | 0.00 | 0.00 | 0.00 | 57 | 1017.1 |
| 20260507141925 | 61 | 141 | 1.7 | 4.3 | 0.00 | 0.00 | 0.00 | 57 | 1017.1 |
| 20260507141203 | 61 | 89 | 2.6 | 4.3 | 0.00 | 0.00 | 0.00 | 58 | 1017.2 |
| 20260507140926 | 61 | 148 | 1.7 | 7.8 | 0.00 | 0.00 | 0.00 | 57 | 1017.2 |
| 20260507140204 | 61 | 147 | 1.7 | 7.8 | 0.00 | 0.00 | 0.00 | 55 | 1017.3 |
| 20260507135704 | 61 | 235 | 3.5 | 7.8 | 0.00 | 0.00 | 0.00 | 57 | 1017.3 |
| 20260507135203 | 60 | 217 | 3.5 | 6.1 | 0.00 | 0.00 | 0.00 | 59 | 1017.4 |
| 20260507134703 | 60 | 164 | 1.7 | 5.2 | 0.00 | 0.00 | 0.00 | 58 | 1017.4 |
| 20260507134204 | 61 | 148 | 2.6 | 6.1 | 0.00 | 0.00 | 0.00 | 57 | 1017.5 |
| 20260507133703 | 61 | 219 | 0.9 | 6.1 | 0.00 | 0.00 | 0.00 | 59 | 1017.5 |
| 20260507133204 | 60 | 123 | 2.6 | 5.2 | 0.00 | 0.00 | 0.00 | 59 | 1017.5 |
| 20260507132705 | 60 | 189 | 1.7 | 6.1 | 0.00 | 0.00 | 0.00 | 60 | 1017.5 |
| 20260507132204 | 60 | 131 | 1.7 | 6.1 | 0.00 | 0.00 | 0.00 | 61 | 1017.5 |
| 20260507131704 | 60 | 183 | 1.7 | 7.8 | 0.00 | 0.00 | 0.00 | 59 | 1017.6 |
| 20260507131203 | 60 | 75 | 3.5 | 7.8 | 0.00 | 0.00 | 0.00 | 59 | 1017.8 |
| 20260507130703 | 59 | 206 | 2.6 | 6.1 | 0.00 | 0.00 | 0.00 | 61 | 1017.7 |
| 20260507130203 | 59 | 73 | 2.6 | 5.2 | 0.00 | 0.00 | 0.00 | 61 | 1017.8 |
| 20260507125704 | 60 | 94 | 1.7 | 5.2 | 0.00 | 0.00 | 0.00 | 61 | 1017.7 |
| 20260507125204 | 59 | 207 | 2.6 | 5.2 | 0.00 | 0.00 | 0.00 | 62 | 1017.6 |
| 20260507124932 | 59 | 165 | 1.7 | 5.2 | 0.00 | 0.00 | 0.00 | 63 | 1017.7 |
| 20260507124204 | 58 | 97 | 2.6 | 5.2 | 0.00 | 0.00 | 0.00 | 63 | 1017.8 |
| 20260507123704 | 58 | 145 | 2.6 | 6.1 | 0.00 | 0.00 | 0.00 | 63 | 1017.8 |
| 20260507123203 | 58 | 182 | 2.6 | 8.7 | 0.00 | 0.00 | 0.00 | 63 | 1017.8 |
| 20260507122705 | 58 | 117 | 3.5 | 8.7 | 0.00 | 0.00 | 0.00 | 63 | 1017.9 |
| 20260507122204 | 58 | 183 | 3.5 | 8.7 | 0.00 | 0.00 | 0.00 | 63 | 1017.8 |
| 20260507121703 | 58 | 140 | 1.7 | 5.2 | 0.00 | 0.00 | 0.00 | 66 | 1017.9 |
| 20260507121203 | 57 | 219 | 1.7 | 5.2 | 0.00 | 0.00 | 0.00 | 67 | 1017.8 |
| 20260507120936 | 57 | 197 | 1.7 | 5.2 | 0.00 | 0.00 | 0.00 | 67 | 1017.9 |
| 20260507120203 | 56 | 131 | 1.7 | 4.3 | 0.00 | 0.00 | 0.00 | 67 | 1018.0 |
| 20260507115927 | 56 | 97 | 1.7 | 7.8 | 0.00 | 0.00 | 0.00 | 69 | 1018.0 |